TimeCST,TemperatureF,Dew PointF,Humidity,Sea Level PressureIn,VisibilityMPH,Wind Direction,Wind SpeedMPH,Gust SpeedMPH,PrecipitationIn,Events,Conditions,WindDirDegrees,DateUTC
12:17 AM,44.6,41.0,87,29.67,10.0,NNW,21.9,-,0.00,Rain,Light Rain,330,2012-11-11 06:17:00
12:52 AM,41.0,37.9,89,29.69,10.0,NNW,19.6,-,0.00,Rain,Light Rain,330,2012-11-11 06:52:00
1:52 AM,35.1,33.1,92,29.74,4.0,NNW,18.4,29.9,0.00,Rain,Light Rain,330,2012-11-11 07:52:00
2:06 AM,35.6,33.8,93,29.73,2.5,NNW,12.7,21.9,0.00,Rain,Light Rain,340,2012-11-11 08:06:00
2:09 AM,35.6,33.8,93,29.73,3.0,NNW,15.0,-,0.00,Rain,Light Rain,340,2012-11-11 08:09:00
2:19 AM,35.6,33.8,93,29.74,3.0,NNW,21.9,26.5,0.00,Rain,Light Rain,330,2012-11-11 08:19:00
2:52 AM,33.1,30.9,92,29.78,4.0,NNW,20.7,28.8,0.00,Rain,Light Rain,330,2012-11-11 08:52:00
3:52 AM,32.0,28.9,88,29.79,6.0,NNW,21.9,27.6,0.00,Rain-Snow,Light Rain,340,2012-11-11 09:52:00
3:55 AM,32.0,28.4,87,29.79,9.0,NNW,20.7,27.6,0.00,,Overcast,330,2012-11-11 09:55:00
4:25 AM,30.2,28.4,93,29.82,8.0,NNW,21.9,31.1,0.00,,Overcast,330,2012-11-11 10:25:00
4:52 AM,30.9,28.0,89,29.82,8.0,NNW,17.3,31.1,0.00,,Overcast,330,2012-11-11 10:52:00
5:18 AM,30.2,26.6,86,29.82,6.0,NNW,19.6,31.1,0.00,,Light Freezing Drizzle,330,2012-11-11 11:18:00
5:52 AM,28.9,26.1,89,29.82,5.0,NNW,20.7,31.1,0.00,,Light Freezing Drizzle,330,2012-11-11 11:52:00
6:15 AM,28.4,24.8,86,29.85,10.0,NNW,15.0,28.8,0.00,,Overcast,330,2012-11-11 12:15:00
6:52 AM,28.9,24.1,82,29.86,10.0,NNW,18.4,26.5,0.00,,Overcast,330,2012-11-11 12:52:00
7:52 AM,28.0,21.9,78,29.90,10.0,NW,23.0,29.9,N/A,,Overcast,320,2012-11-11 13:52:00
8:52 AM,28.0,21.0,75,29.95,10.0,NW,19.6,29.9,N/A,,Overcast,320,2012-11-11 14:52:00
9:06 AM,26.6,19.4,74,29.93,10.0,NNW,20.7,29.9,N/A,,Overcast,330,2012-11-11 15:06:00
9:38 AM,26.6,19.4,74,29.94,10.0,NW,18.4,-,N/A,,Overcast,320,2012-11-11 15:38:00
9:52 AM,27.0,19.0,72,29.97,10.0,NW,21.9,29.9,N/A,,Overcast,320,2012-11-11 15:52:00
10:15 AM,26.6,17.6,69,29.95,10.0,NW,19.6,-,N/A,,Overcast,320,2012-11-11 16:15:00
10:52 AM,28.0,18.0,66,29.99,10.0,NW,20.7,29.9,N/A,,Scattered Clouds,320,2012-11-11 16:52:00
11:52 AM,30.9,19.0,61,29.96,10.0,North,19.6,27.6,N/A,,Scattered Clouds,350,2012-11-11 17:52:00
12:52 PM,32.0,19.0,59,30.02,10.0,NW,19.6,25.3,N/A,,Scattered Clouds,310,2012-11-11 18:52:00
1:52 PM,32.0,17.1,54,30.01,10.0,NW,20.7,28.8,N/A,,Scattered Clouds,320,2012-11-11 19:52:00
2:52 PM,32.0,16.0,52,30.03,10.0,NW,19.6,31.1,N/A,,Partly Cloudy,310,2012-11-11 20:52:00
3:52 PM,32.0,14.0,48,30.06,10.0,NW,21.9,29.9,N/A,,Scattered Clouds,310,2012-11-11 21:52:00
4:52 PM,30.0,14.0,51,30.08,10.0,NW,17.3,-,N/A,,Scattered Clouds,320,2012-11-11 22:52:00
5:52 PM,28.9,14.0,54,30.12,10.0,NW,13.8,-,N/A,,Partly Cloudy,310,2012-11-11 23:52:00
6:52 PM,28.0,14.0,56,30.14,10.0,NW,11.5,-,N/A,,Clear,310,2012-11-12 00:52:00
7:52 PM,28.0,14.0,56,30.16,10.0,WNW,10.4,-,N/A,,Clear,300,2012-11-12 01:52:00
8:52 PM,28.0,12.9,53,30.17,10.0,WNW,11.5,-,N/A,,Clear,300,2012-11-12 02:52:00
9:52 PM,27.0,14.0,58,30.21,10.0,WNW,13.8,-,N/A,,Clear,290,2012-11-12 03:52:00
10:52 PM,25.0,14.0,63,30.21,10.0,NW,10.4,-,N/A,,Clear,310,2012-11-12 04:52:00
11:52 PM,25.0,14.0,63,30.21,10.0,NW,6.9,-,N/A,,Clear,310,2012-11-12 05:52:00